Weather History for Vernal, UT

Change the Weather History Date:

Tuesday, July 31, 2012

  Actual Average Record
Temperature  
Mean Temperature 75 °F 73 °F  
Max Temperature 91 °F 88 °F 100 °F (1934)
Min Temperature 58 °F 58 °F 41 °F (1950)
Degree Days  
Heating Degree Days 0 0  
Month to date heating degree days 0 2  
Since 1 June heating degree days 27 78  
Since 1 July heating degree days 0 6  
Cooling Degree Days 10 8  
Month to date cooling degree days 317 227  
Year to date cooling degree days 526 318  
Since 1 June cooling degree days 516 309  
Growing Degree Days 25 (Base 50)    
Moisture  
Dew Point 51 °F    
Average Humidity 46    
Maximum Humidity 72    
Minimum Humidity 19    
Precipitation  
Precipitation 0.02 in 0.03 in 0.42 in (1939)
Month to date precipitation 0.47 0.64  
Year to date precipitation 1.18 4.85  
Sea Level Pressure  
Sea Level Pressure 30.02 in    
Wind  
Wind Speed 5 mph (SW)    
Max Wind Speed 29 mph    
Max Gust Speed 41 mph    
Visibility 10 miles    
Events      
T = Trace of Precipitation, MM = Missing Value Source: NWS Daily Summary

Daily Weather History Graph

Daily Weather History Graph

Search for Another Location

Airport:

Trip Planner

Search our weather history database for the weather conditions in past years. The results will help you decide how hot, cold, wet, or windy it might be!

Date:

Astronomy

Jul. 31, 2012 Rise Set
Actual Time 6:14 AM MDT 8:33 PM MDT
Civil Twilight 5:44 AM MDT 9:03 PM MDT
Nautical Twilight 5:06 AM MDT 9:41 PM MDT
Astronomical Twilight 4:24 AM MDT 10:22 PM MDT
Moon 7:24 PM MDT 4:39 AM MDT
Length of Visible Light 15h 19m
Length of Day
14h 18m
Waxing Gibbous, 97% of the Moon is Illuminated
Jul 31
Waxing Gibbous
Aug 1
Full
Aug 9
Last Quarter
Aug 17
New
Aug 24
First Quarter

Hourly Weather History & Observations

Time (MDT) Temp. Dew Point Humidity Pressure Visibility Wind Dir Wind Speed Gust Speed Precip Events Conditions
12:53 AM 64.9 °F 55.0 °F 70% 30.01 in 10.0 mi SSW 5.8 mph - 0.00 in   Clear
1:53 AM 62.1 °F 53.1 °F 72% 30.01 in 10.0 mi SSW 5.8 mph - N/A   Clear
2:53 AM 62.1 °F 52.0 °F 70% 30.01 in 10.0 mi NW 3.5 mph - N/A   Clear
3:53 AM 62.1 °F 52.0 °F 70% 30.01 in 10.0 mi Calm Calm - N/A   Clear
4:53 AM 60.1 °F 50.0 °F 69% 30.03 in 10.0 mi WSW 3.5 mph - N/A   Clear
5:53 AM 60.1 °F 51.1 °F 72% 30.05 in 10.0 mi Calm Calm - N/A   Clear
6:53 AM 62.1 °F 50.0 °F 65% 30.05 in 10.0 mi Calm Calm - N/A   Clear
7:53 AM 64.9 °F 53.1 °F 65% 30.08 in 10.0 mi SSE 5.8 mph - N/A   Clear
8:53 AM 66.9 °F 54.0 °F 63% 30.11 in 10.0 mi Calm Calm - N/A   Clear
9:53 AM 72.0 °F 53.1 °F 51% 30.08 in 10.0 mi NNE 5.8 mph - N/A   Clear
10:53 AM 73.0 °F 52.0 °F 48% 30.07 in 10.0 mi Calm Calm - N/A   Clear
11:53 AM 77.0 °F 52.0 °F 42% 30.06 in 10.0 mi SSW 5.8 mph - N/A   Clear
1:53 PM 84.0 °F 51.1 °F 32% 30.01 in 10.0 mi Variable 6.9 mph - N/A   Clear
2:53 PM 87.1 °F 48.0 °F 26% 29.97 in 10.0 mi Variable 4.6 mph - N/A   Clear
3:53 PM 88.0 °F 48.0 °F 25% 29.93 in 10.0 mi Variable 6.9 mph - N/A   Clear
4:53 PM 90.0 °F 43.0 °F 19% 29.90 in 10.0 mi East 5.8 mph - N/A   Clear
5:53 PM 90.0 °F 43.0 °F 19% 29.89 in 10.0 mi Calm Calm - N/A   Clear
9:53 PM 71.1 °F 53.1 °F 53% 30.04 in 10.0 mi NNW 17.3 mph - N/A   Clear
11:53 PM 66.0 °F 54.0 °F 65% 30.03 in 10.0 mi Calm Calm - N/A   Clear